Time,TemperatureF,DewpointF,PressureIn,WindDirection,WindDirectionDegrees,WindSpeedMPH,WindSpeedGustMPH,Humidity,HourlyPrecipIn,Conditions,Clouds,dailyrainin,SolarRadiationWatts/m^2,SoftwareType,DateUTC
2013-05-01 00:02:00,54.9,51.3,29.86,NW,310,1.0,2.0,88,0.00,,,0.00,0,HR-IXPWINDi_r2_v1.2.,2013-05-01 07:02:00,
2013-05-01 00:07:00,55.1,51.5,29.86,NW,310,1.0,2.0,88,0.00,,,0.00,0,HR-IXPWINDi_r2_v1.2.,2013-05-01 07:07:00,
2013-05-01 00:12:00,55.3,51.4,29.86,NW,310,0.0,2.0,87,0.00,,,0.00,0,HR-IXPWINDi_r2_v1.2.,2013-05-01 07:12:00,
2013-05-01 00:17:00,55.4,51.5,29.86,NW,310,0.0,2.0,87,0.00,,,0.00,0,HR-IXPWINDi_r2_v1.2.,2013-05-01 07:17:00,
2013-05-01 00:22:00,55.6,51.7,29.86,NW,310,2.0,2.0,87,0.00,,,0.00,0,HR-IXPWINDi_r2_v1.2.,2013-05-01 07:22:00,
2013-05-01 00:27:00,55.7,51.8,29.86,NW,310,0.0,2.0,87,0.00,,,0.00,0,HR-IXPWINDi_r2_v1.2.,2013-05-01 07:27:00,
2013-05-01 00:33:00,55.8,51.6,29.86,NW,310,0.0,2.0,86,0.00,,,0.00,0,HR-IXPWINDi_r2_v1.2.,2013-05-01 07:33:00,
2013-05-01 00:38:00,55.9,51.7,29.87,NW,310,0.0,2.0,86,0.00,,,0.00,0,HR-IXPWINDi_r2_v1.2.,2013-05-01 07:38:00,
2013-05-01 00:43:00,56.0,51.8,29.87,NW,310,0.0,2.0,86,0.00,,,0.00,0,HR-IXPWINDi_r2_v1.2.,2013-05-01 07:43:00,
2013-05-01 00:48:00,56.1,51.9,29.87,NW,310,0.0,1.0,86,0.00,,,0.00,0,HR-IXPWINDi_r2_v1.2.,2013-05-01 07:48:00,
2013-05-01 00:53:00,56.2,52.0,29.87,NW,310,0.0,1.0,86,0.00,,,0.00,0,HR-IXPWINDi_r2_v1.2.,2013-05-01 07:53:00,
2013-05-01 00:59:00,56.3,52.1,29.87,NW,310,0.0,2.0,86,0.00,,,0.00,0,HR-IXPWINDi_r2_v1.2.,2013-05-01 07:59:00,
2013-05-01 01:04:00,56.4,52.2,29.87,NW,310,0.0,2.0,86,0.00,,,0.00,0,HR-IXPWINDi_r2_v1.2.,2013-05-01 08:04:00,
2013-05-01 01:09:00,56.4,52.2,29.87,NW,310,1.0,2.0,86,0.00,,,0.00,0,HR-IXPWINDi_r2_v1.2.,2013-05-01 08:09:00,
2013-05-01 01:14:00,56.5,52.3,29.87,NW,310,0.0,2.0,86,0.00,,,0.00,0,HR-IXPWINDi_r2_v1.2.,2013-05-01 08:14:00,
2013-05-01 01:19:00,56.5,52.0,29.87,NW,310,0.0,1.0,85,0.00,,,0.00,0,HR-IXPWINDi_r2_v1.2.,2013-05-01 08:19:00,
2013-05-01 01:24:00,56.7,52.2,29.87,NW,310,0.0,1.0,85,0.00,,,0.00,0,HR-IXPWINDi_r2_v1.2.,2013-05-01 08:24:00,
2013-05-01 01:30:00,56.7,52.2,29.87,NW,310,0.0,0.0,85,0.00,,,0.00,0,HR-IXPWINDi_r2_v1.2.,2013-05-01 08:30:00,
2013-05-01 01:35:00,56.8,52.3,29.87,NW,310,0.0,0.0,85,0.00,,,0.00,0,HR-IXPWINDi_r2_v1.2.,2013-05-01 08:35:00,
2013-05-01 01:40:00,56.9,52.4,29.88,NW,310,0.0,0.0,85,0.00,,,0.00,0,HR-IXPWINDi_r2_v1.2.,2013-05-01 08:40:00,
2013-05-01 01:45:00,57.0,52.5,29.88,NW,310,0.0,0.0,85,0.00,,,0.00,0,HR-IXPWINDi_r2_v1.2.,2013-05-01 08:45:00,
2013-05-01 01:50:00,57.1,52.6,29.88,NW,310,0.0,0.0,85,0.00,,,0.00,0,HR-IXPWINDi_r2_v1.2.,2013-05-01 08:50:00,
2013-05-01 01:56:00,57.1,52.6,29.88,NW,310,0.0,0.0,85,0.00,,,0.00,0,HR-IXPWINDi_r2_v1.2.,2013-05-01 08:56:00,
2013-05-01 02:01:00,57.1,52.6,29.88,NW,310,0.0,0.0,85,0.00,,,0.00,0,HR-IXPWINDi_r2_v1.2.,2013-05-01 09:01:00,
2013-05-01 02:06:00,56.9,52.4,29.88,NW,310,0.0,0.0,85,0.00,,,0.00,0,HR-IXPWINDi_r2_v1.2.,2013-05-01 09:06:00,
2013-05-01 02:11:00,56.9,52.4,29.88,NW,310,0.0,0.0,85,0.00,,,0.00,0,HR-IXPWINDi_r2_v1.2.,2013-05-01 09:11:00,
2013-05-01 02:17:00,56.9,52.7,29.88,NW,310,0.0,0.0,86,0.00,,,0.00,0,HR-IXPWINDi_r2_v1.2.,2013-05-01 09:17:00,
2013-05-01 02:22:00,57.1,52.9,29.88,NW,310,0.0,0.0,86,0.00,,,0.00,0,HR-IXPWINDi_r2_v1.2.,2013-05-01 09:22:00,
2013-05-01 02:27:00,57.1,52.6,29.89,NW,310,0.0,0.0,85,0.00,,,0.00,0,HR-IXPWINDi_r2_v1.2.,2013-05-01 09:27:00,
2013-05-01 02:32:00,57.0,52.5,29.88,NW,310,0.0,0.0,85,0.00,,,0.00,0,HR-IXPWINDi_r2_v1.2.,2013-05-01 09:32:00,
2013-05-01 02:37:00,57.1,52.6,29.88,NW,310,0.0,0.0,85,0.00,,,0.00,0,HR-IXPWINDi_r2_v1.2.,2013-05-01 09:37:00,
2013-05-01 02:42:00,57.2,52.7,29.88,NW,310,0.0,0.0,85,0.00,,,0.00,0,HR-IXPWINDi_r2_v1.2.,2013-05-01 09:42:00,
2013-05-01 02:48:00,57.1,52.6,29.88,NW,310,0.0,0.0,85,0.00,,,0.00,0,HR-IXPWINDi_r2_v1.2.,2013-05-01 09:48:00,
2013-05-01 02:53:00,57.2,52.7,29.88,NW,310,0.0,0.0,85,0.00,,,0.00,0,HR-IXPWINDi_r2_v1.2.,2013-05-01 09:53:00,
2013-05-01 02:58:00,57.2,53.0,29.88,NW,310,0.0,0.0,86,0.00,,,0.00,0,HR-IXPWINDi_r2_v1.2.,2013-05-01 09:58:00,
2013-05-01 03:03:00,57.3,52.8,29.88,NW,310,0.0,0.0,85,0.00,,,0.00,0,HR-IXPWINDi_r2_v1.2.,2013-05-01 10:03:00,
2013-05-01 03:09:00,57.4,52.9,29.89,NW,310,0.0,1.0,85,0.00,,,0.00,0,HR-IXPWINDi_r2_v1.2.,2013-05-01 10:09:00,
2013-05-01 03:14:00,57.5,53.0,29.88,NW,310,0.0,1.0,85,0.00,,,0.00,0,HR-IXPWINDi_r2_v1.2.,2013-05-01 10:14:00,
2013-05-01 03:20:00,57.5,53.0,29.88,NW,310,0.0,1.0,85,0.00,,,0.00,0,HR-IXPWINDi_r2_v1.2.,2013-05-01 10:20:00,
2013-05-01 03:25:00,57.5,53.0,29.88,NW,310,0.0,1.0,85,0.00,,,0.00,0,HR-IXPWINDi_r2_v1.2.,2013-05-01 10:25:00,
2013-05-01 03:30:00,57.6,53.1,29.88,NW,310,0.0,1.0,85,0.00,,,0.00,0,HR-IXPWINDi_r2_v1.2.,2013-05-01 10:30:00,
2013-05-01 03:35:00,57.4,52.9,29.88,NW,310,0.0,1.0,85,0.00,,,0.00,0,HR-IXPWINDi_r2_v1.2.,2013-05-01 10:35:00,
2013-05-01 03:40:00,57.3,53.1,29.88,NW,310,0.0,0.0,86,0.00,,,0.00,0,HR-IXPWINDi_r2_v1.2.,2013-05-01 10:40:00,
2013-05-01 03:45:00,57.3,53.1,29.88,NW,310,0.0,0.0,86,0.00,,,0.00,0,HR-IXPWINDi_r2_v1.2.,2013-05-01 10:45:00,
2013-05-01 03:51:00,57.2,53.0,29.88,NW,310,0.0,0.0,86,0.00,,,0.00,0,HR-IXPWINDi_r2_v1.2.,2013-05-01 10:51:00,
2013-05-01 03:56:00,57.2,53.0,29.88,NW,310,0.0,0.0,86,0.00,,,0.00,0,HR-IXPWINDi_r2_v1.2.,2013-05-01 10:56:00,
2013-05-01 04:01:00,57.2,53.0,29.88,NW,310,0.0,0.0,86,0.00,,,0.00,0,HR-IXPWINDi_r2_v1.2.,2013-05-01 11:01:00,
2013-05-01 04:06:00,57.3,53.4,29.88,NW,310,0.0,1.0,87,0.00,,,0.00,0,HR-IXPWINDi_r2_v1.2.,2013-05-01 11:06:00,
2013-05-01 04:11:00,57.4,53.5,29.88,NW,310,0.0,1.0,87,0.00,,,0.00,0,HR-IXPWINDi_r2_v1.2.,2013-05-01 11:11:00,
2013-05-01 04:17:00,57.4,53.5,29.88,NW,310,0.0,1.0,87,0.00,,,0.00,0,HR-IXPWINDi_r2_v1.2.,2013-05-01 11:17:00,
2013-05-01 04:22:00,57.4,53.5,29.88,NW,310,0.0,1.0,87,0.00,,,0.00,0,HR-IXPWINDi_r2_v1.2.,2013-05-01 11:22:00,
2013-05-01 04:27:00,57.4,53.5,29.88,NW,310,0.0,1.0,87,0.00,,,0.00,0,HR-IXPWINDi_r2_v1.2.,2013-05-01 11:27:00,
2013-05-01 04:32:00,57.4,53.5,29.88,NW,310,0.0,1.0,87,0.00,,,0.00,0,HR-IXPWINDi_r2_v1.2.,2013-05-01 11:32:00,
2013-05-01 04:38:00,57.4,53.5,29.88,NW,310,0.0,1.0,87,0.00,,,0.00,0,HR-IXPWINDi_r2_v1.2.,2013-05-01 11:38:00,
2013-05-01 04:43:00,57.4,53.5,29.88,NW,310,0.0,0.0,87,0.00,,,0.00,0,HR-IXPWINDi_r2_v1.2.,2013-05-01 11:43:00,
2013-05-01 04:48:00,57.4,53.5,29.88,NW,310,0.0,1.0,87,0.00,,,0.00,0,HR-IXPWINDi_r2_v1.2.,2013-05-01 11:48:00,
2013-05-01 04:54:00,57.3,53.4,29.89,NW,310,0.0,1.0,87,0.00,,,0.00,0,HR-IXPWINDi_r2_v1.2.,2013-05-01 11:54:00,
2013-05-01 04:59:00,57.3,53.7,29.89,NW,310,0.0,2.0,88,0.00,,,0.00,0,HR-IXPWINDi_r2_v1.2.,2013-05-01 11:59:00,
2013-05-01 05:04:00,57.3,53.7,29.89,WSW,241,1.0,3.0,88,0.00,,,0.00,0,HR-IXPWINDi_r2_v1.2.,2013-05-01 12:04:00,
2013-05-01 05:09:00,57.3,53.7,29.89,WSW,241,0.0,3.0,88,0.00,,,0.00,0,HR-IXPWINDi_r2_v1.2.,2013-05-01 12:09:00,
2013-05-01 05:14:00,57.2,53.6,29.89,WSW,241,0.0,2.0,88,0.00,,,0.00,0,HR-IXPWINDi_r2_v1.2.,2013-05-01 12:14:00,
2013-05-01 05:19:00,57.2,53.6,29.89,WSW,241,0.0,0.0,88,0.00,,,0.00,0,HR-IXPWINDi_r2_v1.2.,2013-05-01 12:19:00,
2013-05-01 05:24:00,57.2,53.6,29.89,WSW,241,0.0,1.0,88,0.00,,,0.00,0,HR-IXPWINDi_r2_v1.2.,2013-05-01 12:24:00,
2013-05-01 05:30:00,57.3,53.7,29.90,WSW,241,0.0,1.0,88,0.00,,,0.00,0,HR-IXPWINDi_r2_v1.2.,2013-05-01 12:30:00,
2013-05-01 05:35:00,57.3,53.7,29.89,WSW,241,0.0,1.0,88,0.00,,,0.00,0,HR-IXPWINDi_r2_v1.2.,2013-05-01 12:35:00,
2013-05-01 05:40:00,57.3,53.7,29.90,WSW,241,0.0,0.0,88,0.00,,,0.00,0,HR-IXPWINDi_r2_v1.2.,2013-05-01 12:40:00,
2013-05-01 05:45:00,57.2,53.6,29.90,WSW,241,0.0,0.0,88,0.00,,,0.00,0,HR-IXPWINDi_r2_v1.2.,2013-05-01 12:45:00,
2013-05-01 05:50:00,57.2,53.6,29.90,WSW,241,0.0,0.0,88,0.00,,,0.00,0,HR-IXPWINDi_r2_v1.2.,2013-05-01 12:50:00,
2013-05-01 05:55:00,57.2,53.6,29.90,WSW,241,0.0,0.0,88,0.00,,,0.00,0,HR-IXPWINDi_r2_v1.2.,2013-05-01 12:55:00,
2013-05-01 06:01:00,57.3,53.7,29.90,WSW,241,0.0,1.0,88,0.00,,,0.00,0,HR-IXPWINDi_r2_v1.2.,2013-05-01 13:01:00,
2013-05-01 06:06:00,57.3,53.7,29.91,WSW,241,0.0,1.0,88,0.00,,,0.00,0,HR-IXPWINDi_r2_v1.2.,2013-05-01 13:06:00,
2013-05-01 06:11:00,57.3,53.7,29.91,WSW,241,0.0,1.0,88,0.00,,,0.00,0,HR-IXPWINDi_r2_v1.2.,2013-05-01 13:11:00,
2013-05-01 06:16:00,57.3,53.7,29.91,WSW,241,0.0,0.0,88,0.00,,,0.00,0,HR-IXPWINDi_r2_v1.2.,2013-05-01 13:16:00,
2013-05-01 06:21:00,57.3,53.7,29.91,WSW,241,0.0,0.0,88,0.00,,,0.00,0,HR-IXPWINDi_r2_v1.2.,2013-05-01 13:21:00,
2013-05-01 06:26:00,57.4,53.8,29.91,WSW,241,0.0,2.0,88,0.00,,,0.00,5,HR-IXPWINDi_r2_v1.2.,2013-05-01 13:26:00,
2013-05-01 06:32:00,57.5,53.9,29.91,WSW,241,0.0,2.0,88,0.00,,,0.00,7,HR-IXPWINDi_r2_v1.2.,2013-05-01 13:32:00,
2013-05-01 06:37:00,57.6,54.0,29.92,WSW,241,0.0,1.0,88,0.00,,,0.00,11,HR-IXPWINDi_r2_v1.2.,2013-05-01 13:37:00,
2013-05-01 06:42:00,57.5,53.9,29.92,WSW,241,0.0,1.0,88,0.00,,,0.00,12,HR-IXPWINDi_r2_v1.2.,2013-05-01 13:42:00,
2013-05-01 06:48:00,57.7,54.1,29.92,WSW,241,0.0,1.0,88,0.00,,,0.00,18,HR-IXPWINDi_r2_v1.2.,2013-05-01 13:48:00,
2013-05-01 06:53:00,57.8,54.2,29.92,WSW,241,0.0,1.0,88,0.00,,,0.00,19,HR-IXPWINDi_r2_v1.2.,2013-05-01 13:53:00,
2013-05-01 06:58:00,57.8,54.2,29.93,WSW,241,0.0,0.0,88,0.00,,,0.00,25,HR-IXPWINDi_r2_v1.2.,2013-05-01 13:58:00,
2013-05-01 07:03:00,58.0,54.4,29.93,WSW,241,0.0,1.0,88,0.00,,,0.00,30,HR-IXPWINDi_r2_v1.2.,2013-05-01 14:03:00,
2013-05-01 07:09:00,58.2,54.3,29.93,WSW,241,0.0,1.0,87,0.00,,,0.00,37,HR-IXPWINDi_r2_v1.2.,2013-05-01 14:09:00,
2013-05-01 07:14:00,58.2,54.3,29.93,WSW,241,0.0,0.0,87,0.00,,,0.00,46,HR-IXPWINDi_r2_v1.2.,2013-05-01 14:14:00,
2013-05-01 07:19:00,58.5,54.3,29.93,WSW,241,0.0,0.0,86,0.00,,,0.00,53,HR-IXPWINDi_r2_v1.2.,2013-05-01 14:19:00,
2013-05-01 07:24:00,58.7,54.5,29.93,WSW,241,0.0,1.0,86,0.00,,,0.00,77,HR-IXPWINDi_r2_v1.2.,2013-05-01 14:24:00,
2013-05-01 07:29:00,58.8,54.6,29.93,WSW,241,0.0,1.0,86,0.00,,,0.00,91,HR-IXPWINDi_r2_v1.2.,2013-05-01 14:29:00,
2013-05-01 07:34:00,59.2,54.6,29.94,WSW,241,0.0,1.0,85,0.00,,,0.00,102,HR-IXPWINDi_r2_v1.2.,2013-05-01 14:34:00,
2013-05-01 07:40:00,59.5,54.9,29.94,WSW,241,0.0,1.0,85,0.00,,,0.00,109,HR-IXPWINDi_r2_v1.2.,2013-05-01 14:40:00,
2013-05-01 07:45:00,59.8,54.9,29.94,North,355,0.0,3.0,84,0.00,,,0.00,79,HR-IXPWINDi_r2_v1.2.,2013-05-01 14:45:00,
2013-05-01 07:50:00,59.7,54.8,29.94,North,355,0.0,3.0,84,0.00,,,0.00,83,HR-IXPWINDi_r2_v1.2.,2013-05-01 14:50:00,
2013-05-01 07:55:00,59.5,54.6,29.94,North,351,0.0,1.0,84,0.00,,,0.00,83,HR-IXPWINDi_r2_v1.2.,2013-05-01 14:55:00,
2013-05-01 08:00:00,59.4,54.5,29.94,North,351,0.0,1.0,84,0.00,,,0.00,69,HR-IXPWINDi_r2_v1.2.,2013-05-01 15:00:00,
2013-05-01 08:05:00,59.4,54.5,29.94,North,355,0.0,0.0,84,0.00,,,0.00,76,HR-IXPWINDi_r2_v1.2.,2013-05-01 15:05:00,
2013-05-01 08:11:00,59.4,54.8,29.95,North,355,0.0,0.0,85,0.00,,,0.00,83,HR-IXPWINDi_r2_v1.2.,2013-05-01 15:11:00,
2013-05-01 08:16:00,59.4,55.1,29.94,North,351,0.0,0.0,86,0.00,,,0.00,149,HR-IXPWINDi_r2_v1.2.,2013-05-01 15:16:00,
2013-05-01 08:21:00,60.4,55.8,29.95,North,355,1.0,1.0,85,0.00,,,0.00,204,HR-IXPWINDi_r2_v1.2.,2013-05-01 15:21:00,
2013-05-01 08:26:00,61.9,56.3,29.95,North,355,0.0,2.0,82,0.00,,,0.00,127,HR-IXPWINDi_r2_v1.2.,2013-05-01 15:26:00,
2013-05-01 08:31:00,61.3,55.4,29.95,North,355,0.0,2.0,81,0.00,,,0.00,83,HR-IXPWINDi_r2_v1.2.,2013-05-01 15:31:00,
2013-05-01 08:36:00,60.8,55.2,29.95,North,351,0.0,1.0,82,0.00,,,0.00,70,HR-IXPWINDi_r2_v1.2.,2013-05-01 15:36:00,
2013-05-01 08:42:00,60.7,55.1,29.95,North,355,0.0,1.0,82,0.00,,,0.00,105,HR-IXPWINDi_r2_v1.2.,2013-05-01 15:42:00,
2013-05-01 08:47:00,60.8,55.2,29.96,North,355,0.0,3.0,82,0.00,,,0.00,121,HR-IXPWINDi_r2_v1.2.,2013-05-01 15:47:00,
2013-05-01 08:52:00,61.0,55.1,29.95,WNW,301,1.0,3.0,81,0.00,,,0.00,128,HR-IXPWINDi_r2_v1.2.,2013-05-01 15:52:00,
2013-05-01 08:57:00,61.1,54.8,29.96,NNE,30,1.0,3.0,80,0.00,,,0.00,100,HR-IXPWINDi_r2_v1.2.,2013-05-01 15:57:00,
2013-05-01 09:03:00,61.3,55.0,29.96,NNE,30,0.0,2.0,80,0.00,,,0.00,137,HR-IXPWINDi_r2_v1.2.,2013-05-01 16:03:00,
2013-05-01 09:08:00,61.7,55.1,29.96,NNE,31,0.0,2.0,79,0.00,,,0.00,120,HR-IXPWINDi_r2_v1.2.,2013-05-01 16:08:00,
2013-05-01 09:13:00,62.5,55.5,29.96,NNE,32,1.0,2.0,78,0.00,,,0.00,536,HR-IXPWINDi_r2_v1.2.,2013-05-01 16:13:00,
2013-05-01 09:19:00,63.6,55.5,29.96,SSW,194,2.0,5.0,75,0.00,,,0.00,550,HR-IXPWINDi_r2_v1.2.,2013-05-01 16:19:00,
2013-05-01 09:24:00,64.2,55.7,29.96,South,178,1.0,5.0,74,0.00,,,0.00,566,HR-IXPWINDi_r2_v1.2.,2013-05-01 16:24:00,
2013-05-01 09:29:00,65.0,56.1,29.96,SSE,167,2.0,5.0,73,0.00,,,0.00,575,HR-IXPWINDi_r2_v1.2.,2013-05-01 16:29:00,
2013-05-01 09:34:00,67.9,57.3,29.95,East,80,0.0,4.0,69,0.00,,,0.00,594,HR-IXPWINDi_r2_v1.2.,2013-05-01 16:34:00,
2013-05-01 09:40:00,67.6,57.0,29.96,SSW,194,0.0,5.0,69,0.00,,,0.00,606,HR-IXPWINDi_r2_v1.2.,2013-05-01 16:40:00,
2013-05-01 09:45:00,67.5,56.1,29.96,SSW,195,2.0,5.0,67,0.00,,,0.00,628,HR-IXPWINDi_r2_v1.2.,2013-05-01 16:45:00,
2013-05-01 09:50:00,66.7,55.7,29.96,South,180,3.0,7.0,68,0.00,,,0.00,638,HR-IXPWINDi_r2_v1.2.,2013-05-01 16:50:00,
2013-05-01 09:55:00,67.6,56.2,29.96,South,184,5.0,7.0,67,0.00,,,0.00,649,HR-IXPWINDi_r2_v1.2.,2013-05-01 16:55:00,
2013-05-01 10:00:00,66.9,55.9,29.96,South,175,1.0,7.0,68,0.00,,,0.00,652,HR-IXPWINDi_r2_v1.2.,2013-05-01 17:00:00,
2013-05-01 10:05:00,67.1,56.1,29.96,SSW,195,0.0,7.0,68,0.00,,,0.00,643,HR-IXPWINDi_r2_v1.2.,2013-05-01 17:05:00,
2013-05-01 10:11:00,69.7,57.8,29.96,ESE,112,0.0,7.0,66,0.00,,,0.00,622,HR-IXPWINDi_r2_v1.2.,2013-05-01 17:11:00,
2013-05-01 10:16:00,70.8,58.0,29.96,South,180,6.0,7.0,64,0.00,,,0.00,610,HR-IXPWINDi_r2_v1.2.,2013-05-01 17:16:00,
2013-05-01 10:21:00,69.8,56.6,29.96,SSW,198,0.0,7.0,63,0.00,,,0.00,606,HR-IXPWINDi_r2_v1.2.,2013-05-01 17:21:00,
2013-05-01 10:27:00,71.9,57.7,29.97,South,169,2.0,6.0,61,0.00,,,0.00,608,HR-IXPWINDi_r2_v1.2.,2013-05-01 17:27:00,
2013-05-01 10:32:00,71.7,57.9,29.96,NE,56,2.0,5.0,62,0.00,,,0.00,633,HR-IXPWINDi_r2_v1.2.,2013-05-01 17:32:00,
2013-05-01 10:37:00,72.9,58.6,29.96,SE,143,1.0,5.0,61,0.00,,,0.00,661,HR-IXPWINDi_r2_v1.2.,2013-05-01 17:37:00,
2013-05-01 10:42:00,72.4,58.1,29.96,SSE,148,1.0,8.0,61,0.00,,,0.00,700,HR-IXPWINDi_r2_v1.2.,2013-05-01 17:42:00,
2013-05-01 10:47:00,72.2,57.0,29.96,SSE,161,6.0,8.0,59,0.00,,,0.00,737,HR-IXPWINDi_r2_v1.2.,2013-05-01 17:47:00,
2013-05-01 10:53:00,70.8,56.6,29.97,SSE,167,1.0,7.0,61,0.00,,,0.00,773,HR-IXPWINDi_r2_v1.2.,2013-05-01 17:53:00,
2013-05-01 10:58:00,71.7,56.6,29.97,SW,220,2.0,7.0,59,0.00,,,0.00,789,HR-IXPWINDi_r2_v1.2.,2013-05-01 17:58:00,
2013-05-01 11:03:00,72.8,59.0,29.97,SSW,192,4.0,7.0,62,0.00,,,0.00,800,HR-IXPWINDi_r2_v1.2.,2013-05-01 18:03:00,
2013-05-01 11:09:00,72.5,57.3,29.97,South,171,4.0,8.0,59,0.00,,,0.00,814,HR-IXPWINDi_r2_v1.2.,2013-05-01 18:09:00,
2013-05-01 11:14:00,73.2,58.9,29.97,SSE,156,3.0,8.0,61,0.00,,,0.00,826,HR-IXPWINDi_r2_v1.2.,2013-05-01 18:14:00,
2013-05-01 11:19:00,74.2,59.4,29.97,South,174,5.0,8.0,60,0.00,,,0.00,828,HR-IXPWINDi_r2_v1.2.,2013-05-01 18:19:00,
2013-05-01 11:24:00,74.0,57.3,29.97,SSE,156,2.0,8.0,56,0.00,,,0.00,844,HR-IXPWINDi_r2_v1.2.,2013-05-01 18:24:00,
2013-05-01 11:29:00,73.7,58.9,29.97,SSE,148,1.0,8.0,60,0.00,,,0.00,853,HR-IXPWINDi_r2_v1.2.,2013-05-01 18:29:00,
2013-05-01 11:34:00,74.2,56.9,29.97,SSW,202,0.0,8.0,55,0.00,,,0.00,858,HR-IXPWINDi_r2_v1.2.,2013-05-01 18:34:00,
2013-05-01 11:39:00,73.9,57.7,29.97,SSE,155,2.0,9.0,57,0.00,,,0.00,861,HR-IXPWINDi_r2_v1.2.,2013-05-01 18:39:00,
2013-05-01 11:45:00,73.2,58.4,29.97,South,175,3.0,9.0,60,0.00,,,0.00,874,HR-IXPWINDi_r2_v1.2.,2013-05-01 18:45:00,
2013-05-01 11:50:00,74.9,59.1,29.97,South,171,7.0,8.0,58,0.00,,,0.00,877,HR-IXPWINDi_r2_v1.2.,2013-05-01 18:50:00,
2013-05-01 11:55:00,74.2,58.9,29.97,SSE,157,5.0,8.0,59,0.00,,,0.00,881,HR-IXPWINDi_r2_v1.2.,2013-05-01 18:55:00,
2013-05-01 12:01:00,73.7,58.0,29.97,South,184,3.0,8.0,58,0.00,,,0.00,886,HR-IXPWINDi_r2_v1.2.,2013-05-01 19:01:00,
2013-05-01 12:06:00,73.6,58.8,29.97,NE,50,3.0,10.0,60,0.00,,,0.00,888,HR-IXPWINDi_r2_v1.2.,2013-05-01 19:06:00,
2013-05-01 12:11:00,73.8,58.5,29.97,SSE,150,3.0,10.0,59,0.00,,,0.00,877,HR-IXPWINDi_r2_v1.2.,2013-05-01 19:11:00,
2013-05-01 12:16:00,75.1,58.8,29.97,SE,134,1.0,8.0,57,0.00,,,0.00,851,HR-IXPWINDi_r2_v1.2.,2013-05-01 19:16:00,
2013-05-01 12:21:00,75.3,58.5,29.96,South,191,3.0,7.0,56,0.00,,,0.00,830,HR-IXPWINDi_r2_v1.2.,2013-05-01 19:21:00,
2013-05-01 12:26:00,76.3,59.4,29.97,SE,134,1.0,7.0,56,0.00,,,0.00,823,HR-IXPWINDi_r2_v1.2.,2013-05-01 19:26:00,
2013-05-01 12:32:00,74.2,57.4,29.97,SSW,196,5.0,10.0,56,0.00,,,0.00,831,HR-IXPWINDi_r2_v1.2.,2013-05-01 19:32:00,
2013-05-01 12:37:00,76.1,60.7,29.96,East,98,0.0,10.0,59,0.00,,,0.00,853,HR-IXPWINDi_r2_v1.2.,2013-05-01 19:37:00,
2013-05-01 12:42:00,76.6,59.7,29.96,SSE,163,7.0,9.0,56,0.00,,,0.00,881,HR-IXPWINDi_r2_v1.2.,2013-05-01 19:42:00,
2013-05-01 12:47:00,76.4,60.0,29.96,SSE,150,6.0,11.0,57,0.00,,,0.00,907,HR-IXPWINDi_r2_v1.2.,2013-05-01 19:47:00,
2013-05-01 12:52:00,75.4,58.6,29.96,South,182,1.0,11.0,56,0.00,,,0.00,912,HR-IXPWINDi_r2_v1.2.,2013-05-01 19:52:00,
2013-05-01 12:57:00,76.3,58.9,29.96,SSE,155,1.0,10.0,55,0.00,,,0.00,911,HR-IXPWINDi_r2_v1.2.,2013-05-01 19:57:00,
2013-05-01 13:03:00,77.8,60.3,29.96,SE,146,2.0,10.0,55,0.00,,,0.00,909,HR-IXPWINDi_r2_v1.2.,2013-05-01 20:03:00,
2013-05-01 13:08:00,78.5,59.9,29.96,SSE,150,4.0,9.0,53,0.00,,,0.00,909,HR-IXPWINDi_r2_v1.2.,2013-05-01 20:08:00,
2013-05-01 13:13:00,77.0,58.0,29.96,South,181,3.0,9.0,52,0.00,,,0.00,905,HR-IXPWINDi_r2_v1.2.,2013-05-01 20:13:00,
2013-05-01 13:18:00,76.7,57.7,29.96,South,189,1.0,9.0,52,0.00,,,0.00,905,HR-IXPWINDi_r2_v1.2.,2013-05-01 20:18:00,
2013-05-01 13:23:00,77.4,59.9,29.96,SSE,156,5.0,7.0,55,0.00,,,0.00,900,HR-IXPWINDi_r2_v1.2.,2013-05-01 20:23:00,
2013-05-01 13:29:00,78.4,60.3,29.96,SSE,153,4.0,7.0,54,0.00,,,0.00,896,HR-IXPWINDi_r2_v1.2.,2013-05-01 20:29:00,
2013-05-01 13:34:00,78.5,59.4,29.96,South,177,3.0,8.0,52,0.00,,,0.00,893,HR-IXPWINDi_r2_v1.2.,2013-05-01 20:34:00,
2013-05-01 13:39:00,78.0,57.8,29.95,South,174,4.0,9.0,50,0.00,,,0.00,889,HR-IXPWINDi_r2_v1.2.,2013-05-01 20:39:00,
2013-05-01 13:44:00,77.8,59.8,29.96,SSE,166,7.0,9.0,54,0.00,,,0.00,886,HR-IXPWINDi_r2_v1.2.,2013-05-01 20:44:00,
2013-05-01 13:49:00,78.3,59.7,29.95,South,182,5.0,9.0,53,0.00,,,0.00,877,HR-IXPWINDi_r2_v1.2.,2013-05-01 20:49:00,
2013-05-01 13:55:00,78.0,59.4,29.95,SSE,158,2.0,9.0,53,0.00,,,0.00,874,HR-IXPWINDi_r2_v1.2.,2013-05-01 20:55:00,
2013-05-01 14:00:00,77.8,58.7,29.95,SE,134,6.0,9.0,52,0.00,,,0.00,868,HR-IXPWINDi_r2_v1.2.,2013-05-01 21:00:00,
2013-05-01 14:05:00,78.0,59.4,29.95,SSE,165,2.0,9.0,53,0.00,,,0.00,860,HR-IXPWINDi_r2_v1.2.,2013-05-01 21:05:00,
2013-05-01 14:10:00,76.9,57.3,29.95,SSW,209,2.0,10.0,51,0.00,,,0.00,854,HR-IXPWINDi_r2_v1.2.,2013-05-01 21:10:00,
2013-05-01 14:15:00,77.6,58.5,29.95,South,180,7.0,10.0,52,0.00,,,0.00,844,HR-IXPWINDi_r2_v1.2.,2013-05-01 21:15:00,
2013-05-01 14:20:00,76.1,58.7,29.95,South,182,3.0,10.0,55,0.00,,,0.00,840,HR-IXPWINDi_r2_v1.2.,2013-05-01 21:20:00,
2013-05-01 14:25:00,78.0,59.4,29.95,SSE,161,2.0,10.0,53,0.00,,,0.00,830,HR-IXPWINDi_r2_v1.2.,2013-05-01 21:25:00,
2013-05-01 14:31:00,77.9,57.7,29.95,SSW,193,5.0,8.0,50,0.00,,,0.00,823,HR-IXPWINDi_r2_v1.2.,2013-05-01 21:31:00,
2013-05-01 14:36:00,77.8,59.3,29.95,SE,130,2.0,10.0,53,0.00,,,0.00,816,HR-IXPWINDi_r2_v1.2.,2013-05-01 21:36:00,
2013-05-01 14:41:00,78.0,58.9,29.95,SSW,207,5.0,10.0,52,0.00,,,0.00,807,HR-IXPWINDi_r2_v1.2.,2013-05-01 21:41:00,
2013-05-01 14:46:00,77.6,58.0,29.95,SE,135,2.0,8.0,51,0.00,,,0.00,796,HR-IXPWINDi_r2_v1.2.,2013-05-01 21:46:00,
2013-05-01 14:51:00,78.4,58.7,29.95,SSE,155,2.0,9.0,51,0.00,,,0.00,786,HR-IXPWINDi_r2_v1.2.,2013-05-01 21:51:00,
2013-05-01 14:57:00,78.2,58.0,29.95,SE,134,1.0,9.0,50,0.00,,,0.00,773,HR-IXPWINDi_r2_v1.2.,2013-05-01 21:57:00,
2013-05-01 15:02:00,78.2,59.1,29.95,SSW,198,6.0,12.0,52,0.00,,,0.00,763,HR-IXPWINDi_r2_v1.2.,2013-05-01 22:02:00,
2013-05-01 15:07:00,78.5,58.3,29.95,South,176,3.0,12.0,50,0.00,,,0.00,752,HR-IXPWINDi_r2_v1.2.,2013-05-01 22:07:00,
2013-05-01 15:12:00,78.1,59.0,29.94,NNW,340,0.0,9.0,52,0.00,,,0.00,742,HR-IXPWINDi_r2_v1.2.,2013-05-01 22:12:00,
2013-05-01 15:17:00,78.1,59.0,29.95,SSE,166,2.0,10.0,52,0.00,,,0.00,724,HR-IXPWINDi_r2_v1.2.,2013-05-01 22:17:00,
2013-05-01 15:22:00,78.1,59.0,29.94,South,175,3.0,10.0,52,0.00,,,0.00,717,HR-IXPWINDi_r2_v1.2.,2013-05-01 22:22:00,
2013-05-01 15:27:00,77.5,57.9,29.94,South,170,5.0,7.0,51,0.00,,,0.00,708,HR-IXPWINDi_r2_v1.2.,2013-05-01 22:27:00,
2013-05-01 15:33:00,77.5,57.9,29.94,SSE,157,2.0,8.0,51,0.00,,,0.00,696,HR-IXPWINDi_r2_v1.2.,2013-05-01 22:33:00,
2013-05-01 15:38:00,77.6,58.0,29.94,South,189,4.0,8.0,51,0.00,,,0.00,682,HR-IXPWINDi_r2_v1.2.,2013-05-01 22:38:00,
2013-05-01 15:43:00,77.0,56.9,29.94,South,169,7.0,11.0,50,0.00,,,0.00,664,HR-IXPWINDi_r2_v1.2.,2013-05-01 22:43:00,
2013-05-01 15:48:00,75.7,57.8,29.94,SSE,161,3.0,11.0,54,0.00,,,0.00,649,HR-IXPWINDi_r2_v1.2.,2013-05-01 22:48:00,
2013-05-01 15:54:00,76.2,57.8,29.94,SSE,164,2.0,10.0,53,0.00,,,0.00,638,HR-IXPWINDi_r2_v1.2.,2013-05-01 22:54:00,
2013-05-01 15:59:00,77.5,58.4,29.94,SSW,205,3.0,10.0,52,0.00,,,0.00,626,HR-IXPWINDi_r2_v1.2.,2013-05-01 22:59:00,
2013-05-01 16:04:00,76.2,57.8,29.94,South,190,5.0,10.0,53,0.00,,,0.00,610,HR-IXPWINDi_r2_v1.2.,2013-05-01 23:04:00,
2013-05-01 16:09:00,75.9,57.5,29.95,South,186,2.0,9.0,53,0.00,,,0.00,596,HR-IXPWINDi_r2_v1.2.,2013-05-01 23:09:00,
2013-05-01 16:14:00,74.9,56.0,29.94,South,182,5.0,8.0,52,0.00,,,0.00,580,HR-IXPWINDi_r2_v1.2.,2013-05-01 23:14:00,
2013-05-01 16:19:00,74.4,57.1,29.95,South,188,4.0,8.0,55,0.00,,,0.00,564,HR-IXPWINDi_r2_v1.2.,2013-05-01 23:19:00,
2013-05-01 16:25:00,74.7,57.4,29.94,SW,222,4.0,8.0,55,0.00,,,0.00,548,HR-IXPWINDi_r2_v1.2.,2013-05-01 23:25:00,
2013-05-01 16:30:00,73.8,56.1,29.94,SSE,147,0.0,9.0,54,0.00,,,0.00,533,HR-IXPWINDi_r2_v1.2.,2013-05-01 23:30:00,
2013-05-01 16:35:00,75.8,58.4,29.94,South,184,7.0,9.0,55,0.00,,,0.00,519,HR-IXPWINDi_r2_v1.2.,2013-05-01 23:35:00,
2013-05-01 16:40:00,74.8,56.5,29.94,SSE,164,4.0,8.0,53,0.00,,,0.00,503,HR-IXPWINDi_r2_v1.2.,2013-05-01 23:40:00,
2013-05-01 16:45:00,74.6,56.3,29.94,SSW,197,3.0,8.0,53,0.00,,,0.00,485,HR-IXPWINDi_r2_v1.2.,2013-05-01 23:45:00,
2013-05-01 16:50:00,73.7,56.0,29.94,South,186,1.0,6.0,54,0.00,,,0.00,469,HR-IXPWINDi_r2_v1.2.,2013-05-01 23:50:00,
2013-05-01 16:55:00,73.8,56.6,29.94,SSW,198,5.0,6.0,55,0.00,,,0.00,455,HR-IXPWINDi_r2_v1.2.,2013-05-01 23:55:00,
2013-05-01 17:00:00,73.9,56.7,29.94,SSE,154,0.0,6.0,55,0.00,,,0.00,438,HR-IXPWINDi_r2_v1.2.,2013-05-02 00:00:00,
2013-05-01 17:06:00,74.8,57.0,29.94,ESE,110,0.0,7.0,54,0.00,,,0.00,422,HR-IXPWINDi_r2_v1.2.,2013-05-02 00:06:00,
2013-05-01 17:11:00,73.8,56.1,29.94,South,178,4.0,8.0,54,0.00,,,0.00,403,HR-IXPWINDi_r2_v1.2.,2013-05-02 00:11:00,
2013-05-01 17:16:00,73.3,55.6,29.94,South,181,4.0,9.0,54,0.00,,,0.00,385,HR-IXPWINDi_r2_v1.2.,2013-05-02 00:16:00,
2013-05-01 17:21:00,72.1,56.0,29.94,South,181,1.0,9.0,57,0.00,,,0.00,369,HR-IXPWINDi_r2_v1.2.,2013-05-02 00:21:00,
2013-05-01 17:26:00,72.6,56.0,29.94,South,179,1.0,7.0,56,0.00,,,0.00,352,HR-IXPWINDi_r2_v1.2.,2013-05-02 00:26:00,
2013-05-01 17:31:00,73.6,56.4,29.94,South,177,3.0,7.0,55,0.00,,,0.00,334,HR-IXPWINDi_r2_v1.2.,2013-05-02 00:31:00,
2013-05-01 17:37:00,73.1,56.4,29.94,South,178,1.0,6.0,56,0.00,,,0.00,313,HR-IXPWINDi_r2_v1.2.,2013-05-02 00:37:00,
2013-05-01 17:42:00,72.9,55.7,29.94,South,186,4.0,7.0,55,0.00,,,0.00,295,HR-IXPWINDi_r2_v1.2.,2013-05-02 00:42:00,
2013-05-01 17:47:00,72.0,55.9,29.94,South,175,5.0,8.0,57,0.00,,,0.00,285,HR-IXPWINDi_r2_v1.2.,2013-05-02 00:47:00,
2013-05-01 17:52:00,71.6,55.5,29.94,South,173,2.0,8.0,57,0.00,,,0.00,264,HR-IXPWINDi_r2_v1.2.,2013-05-02 00:52:00,
2013-05-01 17:57:00,71.9,56.3,29.94,SSE,166,3.0,6.0,58,0.00,,,0.00,241,HR-IXPWINDi_r2_v1.2.,2013-05-02 00:57:00,
2013-05-01 18:02:00,71.7,55.6,29.94,SSE,166,3.0,5.0,57,0.00,,,0.00,225,HR-IXPWINDi_r2_v1.2.,2013-05-02 01:02:00,
2013-05-01 18:07:00,70.6,55.1,29.94,SW,217,2.0,5.0,58,0.00,,,0.00,77,HR-IXPWINDi_r2_v1.2.,2013-05-02 01:07:00,
2013-05-01 18:12:00,69.5,55.0,29.94,SSW,193,4.0,5.0,60,0.00,,,0.00,47,HR-IXPWINDi_r2_v1.2.,2013-05-02 01:12:00,
2013-05-01 18:17:00,69.0,54.9,29.94,South,180,1.0,5.0,61,0.00,,,0.00,40,HR-IXPWINDi_r2_v1.2.,2013-05-02 01:17:00,
2013-05-01 18:23:00,68.7,55.1,29.94,South,181,3.0,4.0,62,0.00,,,0.00,37,HR-IXPWINDi_r2_v1.2.,2013-05-02 01:23:00,
2013-05-01 18:28:00,68.4,55.3,29.94,South,180,1.0,4.0,63,0.00,,,0.00,33,HR-IXPWINDi_r2_v1.2.,2013-05-02 01:28:00,
2013-05-01 18:33:00,68.2,55.1,29.94,SSW,193,3.0,4.0,63,0.00,,,0.00,32,HR-IXPWINDi_r2_v1.2.,2013-05-02 01:33:00,
2013-05-01 18:38:00,67.8,54.7,29.94,South,188,1.0,4.0,63,0.00,,,0.00,30,HR-IXPWINDi_r2_v1.2.,2013-05-02 01:38:00,
2013-05-01 18:43:00,67.5,54.8,29.94,South,182,1.0,4.0,64,0.00,,,0.00,28,HR-IXPWINDi_r2_v1.2.,2013-05-02 01:43:00,
2013-05-01 18:48:00,67.3,55.1,29.94,SSW,192,2.0,4.0,65,0.00,,,0.00,26,HR-IXPWINDi_r2_v1.2.,2013-05-02 01:48:00,
2013-05-01 18:53:00,67.2,55.0,29.94,SSW,192,0.0,4.0,65,0.00,,,0.00,25,HR-IXPWINDi_r2_v1.2.,2013-05-02 01:53:00,
2013-05-01 18:58:00,67.1,54.9,29.94,SSW,192,0.0,4.0,65,0.00,,,0.00,23,HR-IXPWINDi_r2_v1.2.,2013-05-02 01:58:00,
2013-05-01 19:04:00,66.8,55.0,29.94,South,180,0.0,3.0,66,0.00,,,0.00,21,HR-IXPWINDi_r2_v1.2.,2013-05-02 02:04:00,
2013-05-01 19:09:00,66.4,55.1,29.94,South,180,0.0,3.0,67,0.00,,,0.00,19,HR-IXPWINDi_r2_v1.2.,2013-05-02 02:09:00,
2013-05-01 19:15:00,65.8,54.9,29.95,South,180,0.0,1.0,68,0.00,,,0.00,16,HR-IXPWINDi_r2_v1.2.,2013-05-02 02:15:00,
2013-05-01 19:20:00,65.2,55.1,29.95,South,180,0.0,1.0,70,0.00,,,0.00,14,HR-IXPWINDi_r2_v1.2.,2013-05-02 02:20:00,
2013-05-01 19:25:00,64.5,54.8,29.95,South,180,0.0,0.0,71,0.00,,,0.00,11,HR-IXPWINDi_r2_v1.2.,2013-05-02 02:25:00,
2013-05-01 19:30:00,63.9,54.6,29.95,South,180,0.0,1.0,72,0.00,,,0.00,9,HR-IXPWINDi_r2_v1.2.,2013-05-02 02:30:00,
2013-05-01 19:35:00,64.0,54.3,29.95,South,180,0.0,1.0,71,0.00,,,0.00,5,HR-IXPWINDi_r2_v1.2.,2013-05-02 02:35:00,
2013-05-01 19:40:00,64.1,54.8,29.95,South,180,0.0,1.0,72,0.00,,,0.00,0,HR-IXPWINDi_r2_v1.2.,2013-05-02 02:40:00,
2013-05-01 19:46:00,63.4,54.2,29.95,South,180,0.0,1.0,72,0.00,,,0.00,0,HR-IXPWINDi_r2_v1.2.,2013-05-02 02:46:00,
2013-05-01 19:51:00,62.5,53.7,29.96,South,180,0.0,1.0,73,0.00,,,0.00,0,HR-IXPWINDi_r2_v1.2.,2013-05-02 02:51:00,
2013-05-01 19:56:00,61.4,53.0,29.96,South,180,0.0,1.0,74,0.00,,,0.00,0,HR-IXPWINDi_r2_v1.2.,2013-05-02 02:56:00,
2013-05-01 20:01:00,60.6,53.3,29.96,South,180,0.0,2.0,77,0.00,,,0.00,0,HR-IXPWINDi_r2_v1.2.,2013-05-02 03:01:00,
2013-05-01 20:07:00,60.1,53.5,29.96,South,180,0.0,2.0,79,0.00,,,0.00,0,HR-IXPWINDi_r2_v1.2.,2013-05-02 03:07:00,
2013-05-01 20:12:00,59.6,53.0,29.96,South,180,0.0,1.0,79,0.00,,,0.00,0,HR-IXPWINDi_r2_v1.2.,2013-05-02 03:12:00,
2013-05-01 20:17:00,59.0,52.8,29.97,South,180,0.0,1.0,80,0.00,,,0.00,0,HR-IXPWINDi_r2_v1.2.,2013-05-02 03:17:00,
2013-05-01 20:23:00,58.5,52.6,29.97,South,180,0.0,1.0,81,0.00,,,0.00,0,HR-IXPWINDi_r2_v1.2.,2013-05-02 03:23:00,
2013-05-01 20:28:00,58.0,52.5,29.97,South,180,1.0,1.0,82,0.00,,,0.00,0,HR-IXPWINDi_r2_v1.2.,2013-05-02 03:28:00,
2013-05-01 20:33:00,57.5,52.3,29.97,South,180,0.0,1.0,83,0.00,,,0.00,0,HR-IXPWINDi_r2_v1.2.,2013-05-02 03:33:00,
2013-05-01 20:38:00,56.8,52.0,29.98,South,180,0.0,1.0,84,0.00,,,0.00,0,HR-IXPWINDi_r2_v1.2.,2013-05-02 03:38:00,
2013-05-01 20:43:00,56.6,51.8,29.98,South,180,0.0,1.0,84,0.00,,,0.00,0,HR-IXPWINDi_r2_v1.2.,2013-05-02 03:43:00,
2013-05-01 20:48:00,56.3,51.8,29.98,SSW,213,0.0,2.0,85,0.00,,,0.00,0,HR-IXPWINDi_r2_v1.2.,2013-05-02 03:48:00,
2013-05-01 20:53:00,56.2,51.7,29.98,SSW,213,0.0,2.0,85,0.00,,,0.00,0,HR-IXPWINDi_r2_v1.2.,2013-05-02 03:53:00,
2013-05-01 20:58:00,56.1,51.6,29.98,SW,219,0.0,2.0,85,0.00,,,0.00,0,HR-IXPWINDi_r2_v1.2.,2013-05-02 03:58:00,
2013-05-01 21:01:00,56.1,51.6,29.98,SW,219,0.0,2.0,85,0.00,,,0.00,0,HR-IXPWINDi_r2_v1.2.,2013-05-02 04:01:00,
2013-05-01 21:06:00,55.9,51.4,29.99,SW,219,0.0,2.0,85,0.00,,,0.00,0,HR-IXPWINDi_r2_v1.2.,2013-05-02 04:06:00,
2013-05-01 21:11:00,55.7,51.2,29.99,SW,219,1.0,1.0,85,0.00,,,0.00,0,HR-IXPWINDi_r2_v1.2.,2013-05-02 04:11:00,
2013-05-01 21:16:00,55.3,50.8,29.99,SW,219,0.0,1.0,85,0.00,,,0.00,0,HR-IXPWINDi_r2_v1.2.,2013-05-02 04:16:00,
2013-05-01 21:22:00,55.0,50.8,30.00,SW,219,0.0,1.0,86,0.00,,,0.00,0,HR-IXPWINDi_r2_v1.2.,2013-05-02 04:22:00,
2013-05-01 21:27:00,54.9,50.7,30.00,SW,219,0.0,1.0,86,0.00,,,0.00,0,HR-IXPWINDi_r2_v1.2.,2013-05-02 04:27:00,
2013-05-01 21:32:00,54.4,50.2,30.00,SW,218,0.0,0.0,86,0.00,,,0.00,0,HR-IXPWINDi_r2_v1.2.,2013-05-02 04:32:00,
2013-05-01 21:37:00,54.1,50.3,30.00,SW,219,0.0,1.0,87,0.00,,,0.00,0,HR-IXPWINDi_r2_v1.2.,2013-05-02 04:37:00,
2013-05-01 21:42:00,53.8,50.0,30.01,SW,219,0.0,1.0,87,0.00,,,0.00,0,HR-IXPWINDi_r2_v1.2.,2013-05-02 04:42:00,
2013-05-01 21:47:00,53.7,49.9,30.01,SW,219,0.0,1.0,87,0.00,,,0.00,0,HR-IXPWINDi_r2_v1.2.,2013-05-02 04:47:00,
2013-05-01 21:53:00,53.4,49.9,30.01,SW,219,2.0,2.0,88,0.00,,,0.00,0,HR-IXPWINDi_r2_v1.2.,2013-05-02 04:53:00,
2013-05-01 21:58:00,53.3,49.8,30.02,West,281,0.0,4.0,88,0.00,,,0.00,0,HR-IXPWINDi_r2_v1.2.,2013-05-02 04:58:00,
2013-05-01 22:03:00,53.6,50.1,30.02,West,281,2.0,4.0,88,0.00,,,0.00,0,HR-IXPWINDi_r2_v1.2.,2013-05-02 05:03:00,
2013-05-01 22:08:00,54.0,50.5,30.02,WNW,284,0.0,3.0,88,0.00,,,0.00,0,HR-IXPWINDi_r2_v1.2.,2013-05-02 05:08:00,
2013-05-01 22:13:00,53.5,50.0,30.02,WNW,284,0.0,3.0,88,0.00,,,0.00,0,HR-IXPWINDi_r2_v1.2.,2013-05-02 05:13:00,
2013-05-01 22:18:00,53.0,49.5,30.02,WNW,284,0.0,2.0,88,0.00,,,0.00,0,HR-IXPWINDi_r2_v1.2.,2013-05-02 05:18:00,
2013-05-01 22:24:00,52.6,49.4,30.03,WNW,284,0.0,2.0,89,0.00,,,0.00,0,HR-IXPWINDi_r2_v1.2.,2013-05-02 05:24:00,
2013-05-01 22:29:00,52.6,49.4,30.03,WNW,284,0.0,2.0,89,0.00,,,0.00,0,HR-IXPWINDi_r2_v1.2.,2013-05-02 05:29:00,
2013-05-01 22:34:00,52.3,49.4,30.03,WNW,284,1.0,2.0,90,0.00,,,0.00,0,HR-IXPWINDi_r2_v1.2.,2013-05-02 05:34:00,
2013-05-01 22:39:00,52.1,48.9,30.03,WNW,284,0.0,2.0,89,0.00,,,0.00,0,HR-IXPWINDi_r2_v1.2.,2013-05-02 05:39:00,
2013-05-01 22:45:00,51.8,48.9,30.04,WNW,284,0.0,2.0,90,0.00,,,0.00,0,HR-IXPWINDi_r2_v1.2.,2013-05-02 05:45:00,
2013-05-01 22:50:00,51.6,48.7,30.04,WNW,284,0.0,1.0,90,0.00,,,0.00,0,HR-IXPWINDi_r2_v1.2.,2013-05-02 05:50:00,
2013-05-01 22:55:00,51.4,48.5,30.04,WNW,284,0.0,2.0,90,0.00,,,0.00,0,HR-IXPWINDi_r2_v1.2.,2013-05-02 05:55:00,
2013-05-01 23:00:00,51.2,48.3,30.04,WNW,284,0.0,2.0,90,0.00,,,0.00,0,HR-IXPWINDi_r2_v1.2.,2013-05-02 06:00:00,
2013-05-01 23:05:00,51.2,48.6,30.04,WNW,284,1.0,2.0,91,0.00,,,0.00,0,HR-IXPWINDi_r2_v1.2.,2013-05-02 06:05:00,
2013-05-01 23:10:00,51.0,48.4,30.05,WNW,284,0.0,1.0,91,0.00,,,0.00,0,HR-IXPWINDi_r2_v1.2.,2013-05-02 06:10:00,
2013-05-01 23:16:00,50.6,48.0,30.05,WNW,284,1.0,2.0,91,0.00,,,0.00,0,HR-IXPWINDi_r2_v1.2.,2013-05-02 06:16:00,
2013-05-01 23:21:00,50.3,47.7,30.05,WNW,284,0.0,2.0,91,0.00,,,0.00,0,HR-IXPWINDi_r2_v1.2.,2013-05-02 06:21:00,
2013-05-01 23:26:00,50.1,47.5,30.05,WNW,284,0.0,1.0,91,0.00,,,0.00,0,HR-IXPWINDi_r2_v1.2.,2013-05-02 06:26:00,
2013-05-01 23:31:00,50.3,48.0,30.06,WNW,284,2.0,2.0,92,0.00,,,0.00,0,HR-IXPWINDi_r2_v1.2.,2013-05-02 06:31:00,
2013-05-01 23:37:00,50.5,48.2,30.06,WNW,284,0.0,2.0,92,0.00,,,0.00,0,HR-IXPWINDi_r2_v1.2.,2013-05-02 06:37:00,
2013-05-01 23:42:00,50.3,48.0,30.06,WNW,284,0.0,2.0,92,0.00,,,0.00,0,HR-IXPWINDi_r2_v1.2.,2013-05-02 06:42:00,
2013-05-01 23:47:00,50.2,47.9,30.06,WNW,284,0.0,1.0,92,0.00,,,0.00,0,HR-IXPWINDi_r2_v1.2.,2013-05-02 06:47:00,
2013-05-01 23:52:00,50.1,47.8,30.06,WNW,284,0.0,1.0,92,0.00,,,0.00,0,HR-IXPWINDi_r2_v1.2.,2013-05-02 06:52:00,
2013-05-01 23:57:00,50.1,47.8,30.06,WNW,284,0.0,2.0,92,0.00,,,0.00,0,HR-IXPWINDi_r2_v1.2.,2013-05-02 06:57:00,